Starlink 35537

operational
NORAD ID: 66235 Int'l Des: 2025-245 Owner: SPXS Country: US Constellation: starlink
LEOCIRCULAR

About Starlink 35537

Description loading...

Live Position

Loading 3D Globe...

Upcoming Passes

Altitude History

Altitude vs Time

uPlot chart will show altitude changes over time

Two-Line Element Set

1 66235C 25245A 25303.07618056 .00461510 00000+0 73144-3 0 3033
2 66235 53.1600 182.3378 0005265 302.1169 138.2197 16.02575326 10
Epoch: Oct 30, 2025 • Age: 20 hours

Current Status

Altitude 264.8 km
Velocity 7.75 km/s
Sub-Earth Point 15.91°N, 141.6°W
Launch Date Oct 29, 2025
Age 1 days
Type internet

Technical Details

Classification Payload
Mass 575.00 kg
Dry Mass 530.00 kg
Total Mass 575.00 kg
Length 0.30 m
Diameter 4.10 m
Span 29.00 m
Shape Box + pan
Manufacturer SPXS
Bus Type Starlink V2MO
Phase Status In Orbit
Owner/State SPXS/US

Large Constellations

Loading constellations...